TOM7ND LEMH-EGGD

Flight info

Callsign TOM7ND
Flight time N/A
Altitude 40000
Route MEROS2C MEROS N853 LUMAS DCT SOFFY DCT MRM DCT MTL DCT ETREK DCT MADOT DCT MOPEM DCT CACHI DCT AVLON DCT OKRIX DCT BRY DCT CLM DCT KOPOR DCT KESAX DCT KUNAV T421 ICTAM ICTAM1B
Aircraft B738/M-SDE2E3FGHIRWXY/LB1

Departure

Time 2026-05-06 12:43
Airport Menorca Airport (LEMH)

Arrival

Time N/A
Airport Bristol Airport (EGGD)
Time Latitude Longitude Altitude Speed Heading
2026-05-06 12:17 39.86461 4.22252 295 ft 0 kts 51°
2026-05-06 12:39 39.86466 4.22261 291 ft 4 kts 51°
2026-05-06 12:39 39.86494 4.22306 288 ft 9 kts 48°
2026-05-06 12:40 39.86537 4.22294 288 ft 8 kts 278°
2026-05-06 12:40 39.86545 4.22216 293 ft 9 kts 278°
2026-05-06 12:40 39.86591 4.22173 295 ft 9 kts 356°
2026-05-06 12:40 39.86681 4.22190 295 ft 18 kts
2026-05-06 12:41 39.86831 4.22222 301 ft 26 kts
2026-05-06 12:41 39.87020 4.22260 301 ft 27 kts 10°
2026-05-06 12:41 39.87203 4.22300 307 ft 26 kts
2026-05-06 12:41 39.87366 4.22307 310 ft 22 kts 322°
2026-05-06 12:42 39.87369 4.22130 309 ft 21 kts 237°
2026-05-06 12:42 39.87237 4.22068 307 ft 20 kts 190°
2026-05-06 12:42 39.87051 4.22027 303 ft 51 kts 189°
2026-05-06 12:42 39.86424 4.21896 302 ft 131 kts 189°
2026-05-06 12:43 39.85286 4.21647 393 ft 191 kts 187°
2026-05-06 12:43 39.83889 4.21303 1077 ft 208 kts 189°
2026-05-06 12:43 39.82518 4.20973 2292 ft 203 kts 187°
2026-05-06 12:43 39.81070 4.21152 2630 ft 225 kts 158°
2026-05-06 12:44 39.79821 4.22458 3034 ft 238 kts 123°
2026-05-06 12:44 39.79284 4.24512 3611 ft 245 kts 92°
2026-05-06 12:44 39.79606 4.26729 3990 ft 263 kts 63°
2026-05-06 12:44 39.80802 4.28587 4630 ft 274 kts 34°
2026-05-06 12:45 39.82555 4.29532 5597 ft 272 kts 11°
2026-05-06 12:45 39.84426 4.29723 6408 ft 276 kts 350°
2026-05-06 12:45 39.88211 4.28596 8075 ft 283 kts 344°
2026-05-06 12:46 39.90145 4.28007 8911 ft 287 kts 345°
2026-05-06 12:46 39.92122 4.27435 9748 ft 291 kts 345°
2026-05-06 12:46 39.94136 4.26879 10411 ft 302 kts 345°
2026-05-06 12:46 39.96255 4.26308 10617 ft 327 kts 345°
2026-05-06 12:47 39.98557 4.25696 10996 ft 343 kts 345°
2026-05-06 12:47 40.00944 4.25130 11698 ft 351 kts 352°
2026-05-06 12:47 40.03381 4.25386 12456 ft 360 kts
2026-05-06 12:47 40.05882 4.26014 13248 ft 364 kts
2026-05-06 12:48 40.08358 4.26646 13924 ft 369 kts
2026-05-06 12:48 40.10904 4.27287 14563 ft 374 kts
2026-05-06 12:48 40.13481 4.27925 15213 ft 378 kts
2026-05-06 12:48 40.16090 4.28560 15858 ft 383 kts
2026-05-06 12:49 40.18693 4.29188 16482 ft 388 kts
2026-05-06 12:49 40.21373 4.29830 17106 ft 392 kts
2026-05-06 12:49 40.24076 4.30477 17738 ft 397 kts
2026-05-06 12:49 40.26815 4.31131 18347 ft 401 kts
2026-05-06 12:50 40.29545 4.31784 18873 ft 405 kts
2026-05-06 12:50 40.32340 4.32453 19410 ft 410 kts
2026-05-06 12:50 40.35166 4.33131 19943 ft 414 kts
2026-05-06 12:50 40.38014 4.33814 20475 ft 418 kts
2026-05-06 12:51 40.40897 4.34507 21012 ft 422 kts
2026-05-06 12:51 40.43813 4.35208 21503 ft 427 kts
2026-05-06 12:51 40.46708 4.35904 22004 ft 431 kts
2026-05-06 12:51 40.49684 4.36620 22513 ft 434 kts
2026-05-06 12:52 40.52687 4.37338 23003 ft 438 kts
2026-05-06 12:52 40.55672 4.38045 23482 ft 442 kts
2026-05-06 12:52 40.58716 4.38763 23891 ft 446 kts
2026-05-06 12:52 40.61789 4.39490 24316 ft 448 kts
2026-05-06 12:53 40.64846 4.40215 24736 ft 451 kts
2026-05-06 12:53 40.67966 4.40956 25154 ft 454 kts
2026-05-06 12:53 40.71055 4.41691 25548 ft 456 kts
2026-05-06 12:53 40.74203 4.42441 25943 ft 459 kts
2026-05-06 12:54 40.77363 4.43195 26327 ft 462 kts
2026-05-06 12:54 40.80537 4.43953 26714 ft 465 kts
2026-05-06 12:54 40.83729 4.44717 27097 ft 468 kts
2026-05-06 12:54 40.86949 4.45486 27420 ft 471 kts
2026-05-06 12:55 40.90197 4.46264 27775 ft 474 kts
2026-05-06 12:55 40.93414 4.47044 28134 ft 477 kts
2026-05-06 12:55 40.96692 4.47846 28482 ft 479 kts
2026-05-06 12:55 40.99989 4.48656 28822 ft 482 kts
2026-05-06 12:56 41.03298 4.49468 29152 ft 484 kts
2026-05-06 12:56 41.06625 4.50283 29482 ft 488 kts
2026-05-06 12:56 41.09946 4.51095 29735 ft 491 kts
2026-05-06 12:56 41.13335 4.51921 30046 ft 494 kts
2026-05-06 12:57 41.16715 4.52745 30330 ft 495 kts
2026-05-06 12:57 41.20125 4.53578 30609 ft 496 kts
2026-05-06 12:57 41.23493 4.54402 30894 ft 497 kts
2026-05-06 12:57 41.26898 4.55237 31276 ft 496 kts
2026-05-06 12:58 41.30290 4.56070 31633 ft 496 kts
2026-05-06 12:58 41.33681 4.56904 31986 ft 495 kts
2026-05-06 12:58 41.37064 4.57737 32310 ft 494 kts
2026-05-06 12:58 41.40462 4.58572 32588 ft 495 kts
2026-05-06 12:59 41.43816 4.59398 32895 ft 495 kts
2026-05-06 12:59 41.47211 4.60235 33306 ft 493 kts
2026-05-06 12:59 41.50585 4.61069 33629 ft 493 kts
2026-05-06 12:59 41.53976 4.61907 33916 ft 493 kts
2026-05-06 13:00 41.57354 4.62742 34194 ft 493 kts
2026-05-06 13:00 41.60730 4.63579 34486 ft 492 kts
2026-05-06 13:00 41.64060 4.64404 34752 ft 491 kts
2026-05-06 13:00 41.67400 4.65233 34985 ft 491 kts
2026-05-06 13:01 41.70786 4.66074 35243 ft 491 kts
2026-05-06 13:01 41.74164 4.66954 35468 ft 493 kts
2026-05-06 13:01 41.77433 4.68080 35722 ft 495 kts 11°
2026-05-06 13:01 41.80786 4.69396 35999 ft 494 kts 12°
2026-05-06 13:02 41.84042 4.70736 36236 ft 494 kts 12°
2026-05-06 13:02 41.87345 4.72104 36454 ft 494 kts 12°
2026-05-06 13:02 41.90639 4.73454 36701 ft 493 kts 12°
2026-05-06 13:02 41.93901 4.74770 36912 ft 493 kts 12°
2026-05-06 13:03 41.97196 4.76084 37166 ft 492 kts 12°
2026-05-06 13:03 42.00478 4.77383 37456 ft 490 kts 11°
2026-05-06 13:03 42.03761 4.78677 37721 ft 488 kts 11°
2026-05-06 13:03 42.06993 4.79951 37925 ft 488 kts 11°
2026-05-06 13:04 42.10261 4.81239 37989 ft 491 kts 12°
2026-05-06 13:04 42.16816 4.83829 37966 ft 491 kts 12°
2026-05-06 13:05 42.23373 4.86434 37952 ft 488 kts 12°
2026-05-06 13:05 42.29849 4.89013 37953 ft 485 kts 12°
2026-05-06 13:06 42.36297 4.91584 37954 ft 484 kts 12°
2026-05-06 13:06 42.42777 4.94172 37953 ft 482 kts 12°
2026-05-06 13:07 42.49181 4.96736 37948 ft 482 kts 12°
2026-05-06 13:07 42.55645 4.99329 37953 ft 484 kts 12°
2026-05-06 13:08 42.62118 5.01931 37956 ft 485 kts 12°
2026-05-06 13:08 42.68589 5.04539 37956 ft 487 kts 12°
2026-05-06 13:09 42.75091 5.07165 37950 ft 489 kts 12°
2026-05-06 13:09 42.81651 5.09821 37948 ft 491 kts 12°
2026-05-06 13:10 42.88184 5.12473 37951 ft 492 kts 12°
2026-05-06 13:10 42.94764 5.15149 37951 ft 493 kts 12°
2026-05-06 13:11 43.01311 5.17817 37941 ft 493 kts 12°
2026-05-06 13:11 43.07895 5.20488 37935 ft 491 kts 12°
2026-05-06 13:12 43.14456 5.23140 37948 ft 490 kts 12°
2026-05-06 13:12 43.20983 5.25787 37932 ft 488 kts 12°
2026-05-06 13:13 43.27472 5.28427 37933 ft 486 kts 12°
2026-05-06 13:13 43.33978 5.30980 37930 ft 482 kts
2026-05-06 13:13 43.37230 5.31444 37954 ft 472 kts 354°
2026-05-06 13:14 43.40491 5.31144 37936 ft 464 kts 345°
2026-05-06 13:14 43.46588 5.28743 37950 ft 455 kts 335°
2026-05-06 13:15 43.52584 5.25904 37955 ft 455 kts 335°
2026-05-06 13:15 43.58584 5.23101 37938 ft 457 kts 335°
2026-05-06 13:16 43.64656 5.20306 37916 ft 459 kts 335°
2026-05-06 13:16 43.70710 5.17530 37915 ft 461 kts 335°
2026-05-06 13:17 43.76809 5.14729 37917 ft 463 kts 336°
2026-05-06 13:17 43.82953 5.11899 37914 ft 465 kts 336°
2026-05-06 13:18 43.89084 5.09069 37909 ft 466 kts 336°
2026-05-06 13:18 43.95251 5.06216 37917 ft 467 kts 336°
2026-05-06 13:19 44.01423 5.03354 37905 ft 468 kts 336°
2026-05-06 13:19 44.07576 5.00495 37938 ft 467 kts 336°
2026-05-06 13:20 44.13731 4.97628 37966 ft 467 kts 336°
2026-05-06 13:20 44.19905 4.94745 37968 ft 467 kts 336°
2026-05-06 13:21 44.26058 4.91867 37944 ft 466 kts 336°
2026-05-06 13:21 44.31181 4.89465 37896 ft 465 kts 336°
2026-05-06 13:22 44.37309 4.86587 37899 ft 463 kts 336°
2026-05-06 13:22 44.43377 4.83729 37910 ft 461 kts 336°
2026-05-06 13:23 44.49479 4.80849 37911 ft 460 kts 336°
2026-05-06 13:23 44.55532 4.78030 37915 ft 461 kts 340°
2026-05-06 13:24 44.61878 4.76377 37925 ft 466 kts 347°
2026-05-06 13:24 44.68316 4.75089 37931 ft 466 kts 347°
2026-05-06 13:25 44.74719 4.73749 37926 ft 467 kts 347°
2026-05-06 13:25 44.81153 4.72333 37933 ft 468 kts 347°
2026-05-06 13:26 44.87573 4.70900 37932 ft 468 kts 347°
2026-05-06 13:26 44.94003 4.69462 37936 ft 470 kts 347°
2026-05-06 13:27 45.00463 4.68017 37922 ft 470 kts 347°
2026-05-06 13:27 45.06928 4.66569 37925 ft 471 kts 347°
2026-05-06 13:28 45.13441 4.65107 37929 ft 471 kts 347°
2026-05-06 13:28 45.19881 4.63657 37924 ft 472 kts 347°
2026-05-06 13:29 45.26374 4.62175 37939 ft 471 kts 347°
2026-05-06 13:29 45.32860 4.60684 37925 ft 470 kts 347°
2026-05-06 13:30 45.39306 4.59201 37913 ft 469 kts 347°
2026-05-06 13:30 45.45714 4.57725 37911 ft 466 kts 347°
2026-05-06 13:31 45.52084 4.56255 37919 ft 464 kts 347°
2026-05-06 13:31 45.58474 4.54776 37906 ft 463 kts 347°
2026-05-06 13:32 45.64837 4.53300 37912 ft 461 kts 347°
2026-05-06 13:32 45.71143 4.51834 37918 ft 460 kts 348°
2026-05-06 13:33 45.77473 4.50360 37917 ft 460 kts 348°
2026-05-06 13:33 45.83768 4.48895 37917 ft 460 kts 348°
2026-05-06 13:34 45.90072 4.47423 37921 ft 460 kts 348°
2026-05-06 13:34 45.96419 4.45938 37914 ft 462 kts 348°
2026-05-06 13:35 46.02743 4.44454 37906 ft 463 kts 348°
2026-05-06 13:35 46.09131 4.42952 37912 ft 465 kts 348°
2026-05-06 13:36 46.15552 4.41439 37905 ft 466 kts 348°
2026-05-06 13:36 46.21944 4.39929 37898 ft 468 kts 348°
2026-05-06 13:37 46.28397 4.38394 37901 ft 468 kts 347°
2026-05-06 13:37 46.34737 4.36369 37888 ft 467 kts 344°
2026-05-06 13:38 46.41013 4.34076 37882 ft 465 kts 343°
2026-05-06 13:38 46.47265 4.31815 37878 ft 464 kts 344°
2026-05-06 13:39 46.53574 4.29580 37883 ft 463 kts 344°
2026-05-06 13:39 46.59816 4.27383 37873 ft 463 kts 344°
2026-05-06 13:40 46.66053 4.25184 37875 ft 462 kts 344°
2026-05-06 13:40 46.72293 4.22977 37871 ft 461 kts 344°
2026-05-06 13:41 46.78534 4.20762 37867 ft 461 kts 344°
2026-05-06 13:41 46.84736 4.18556 37871 ft 460 kts 344°
2026-05-06 13:42 46.90911 4.16354 37880 ft 460 kts 344°
2026-05-06 13:42 46.97169 4.14117 37876 ft 460 kts 344°
2026-05-06 13:43 47.03418 4.11879 37871 ft 461 kts 344°
2026-05-06 13:43 47.09550 4.09259 37880 ft 459 kts 336°
2026-05-06 13:44 47.15427 4.05721 37880 ft 458 kts 335°
2026-05-06 13:44 47.21304 4.02095 37880 ft 459 kts 335°
2026-05-06 13:45 47.27229 3.98525 37872 ft 459 kts 336°
2026-05-06 13:45 47.36105 3.93235 37883 ft 459 kts 336°
2026-05-06 13:46 47.42025 3.89697 37892 ft 458 kts 336°
2026-05-06 13:46 47.47947 3.86145 37890 ft 458 kts 336°
2026-05-06 13:47 47.53832 3.82607 37905 ft 458 kts 336°
2026-05-06 13:47 47.59708 3.79076 37901 ft 457 kts 336°
2026-05-06 13:48 47.65624 3.75529 37882 ft 457 kts 336°
2026-05-06 13:48 47.71511 3.71991 37903 ft 457 kts 336°
2026-05-06 13:49 47.77397 3.68443 37903 ft 458 kts 336°
2026-05-06 13:49 47.83323 3.64860 37925 ft 458 kts 336°
2026-05-06 13:50 47.89213 3.61290 37911 ft 459 kts 336°
2026-05-06 13:50 47.95137 3.57692 37901 ft 459 kts 336°
2026-05-06 13:51 48.01053 3.54077 37913 ft 459 kts 335°
2026-05-06 13:51 48.06933 3.50456 37906 ft 459 kts 335°
2026-05-06 13:52 48.12862 3.46796 37913 ft 459 kts 335°
2026-05-06 13:52 48.18739 3.43161 37910 ft 459 kts 335°
2026-05-06 13:53 48.24657 3.39514 37910 ft 458 kts 336°
2026-05-06 13:53 48.30531 3.35839 37899 ft 457 kts 335°
2026-05-06 13:54 48.36376 3.32198 37912 ft 457 kts 335°
2026-05-06 13:54 48.42267 3.28518 37894 ft 456 kts 335°
2026-05-06 13:55 48.48103 3.24806 37900 ft 454 kts 335°
2026-05-06 13:55 48.53897 3.21097 37899 ft 453 kts 335°
2026-05-06 13:56 48.59669 3.17399 37900 ft 451 kts 335°
2026-05-06 13:56 48.65465 3.13680 37902 ft 451 kts 335°
2026-05-06 13:57 48.71226 3.09975 37902 ft 452 kts 335°
2026-05-06 13:57 48.77029 3.06233 37890 ft 452 kts 335°
2026-05-06 13:58 48.82813 3.02592 37901 ft 452 kts 335°
2026-05-06 13:58 48.88400 2.98198 37903 ft 451 kts 328°
2026-05-06 13:59 48.93819 2.93343 37902 ft 452 kts 328°
2026-05-06 13:59 48.99232 2.88518 37903 ft 453 kts 328°
2026-05-06 14:00 49.04670 2.83715 37908 ft 453 kts 328°
2026-05-06 14:00 49.10147 2.78879 37910 ft 454 kts 328°
2026-05-06 14:01 49.15639 2.74026 37912 ft 455 kts 328°
2026-05-06 14:01 49.21106 2.69187 37908 ft 456 kts 328°
2026-05-06 14:02 49.26571 2.64337 37914 ft 455 kts 328°
2026-05-06 14:02 49.32059 2.59445 37900 ft 455 kts 328°
2026-05-06 14:03 49.37452 2.54621 37909 ft 453 kts 328°
2026-05-06 14:03 49.42915 2.49727 37919 ft 451 kts 328°
2026-05-06 14:04 49.48308 2.44886 37920 ft 450 kts 328°
2026-05-06 14:04 49.53511 2.39604 37927 ft 445 kts 318°
2026-05-06 14:05 49.58161 2.33384 37929 ft 443 kts 316°
2026-05-06 14:05 49.62767 2.27114 37928 ft 443 kts 317°
2026-05-06 14:06 49.67421 2.20860 37931 ft 442 kts 317°
2026-05-06 14:06 49.72066 2.14657 37918 ft 442 kts 317°
2026-05-06 14:07 49.76738 2.08415 37926 ft 442 kts 317°
2026-05-06 14:07 49.81374 2.02201 37914 ft 443 kts 317°
2026-05-06 14:08 49.86043 1.95922 37925 ft 443 kts 317°
2026-05-06 14:08 49.89902 1.90722 37926 ft 444 kts 317°
2026-05-06 14:09 49.94569 1.84417 37924 ft 444 kts 316°
2026-05-06 14:09 49.99992 1.77069 37937 ft 445 kts 316°
2026-05-06 14:10 50.03886 1.71785 37932 ft 445 kts 317°
2026-05-06 14:10 50.08563 1.65397 37935 ft 445 kts 317°
2026-05-06 14:11 50.13213 1.59086 37942 ft 445 kts 317°
2026-05-06 14:11 50.17885 1.52777 37941 ft 445 kts 317°
2026-05-06 14:12 50.22574 1.46401 37948 ft 445 kts 317°
2026-05-06 14:12 50.27224 1.40043 37945 ft 445 kts 317°
2026-05-06 14:13 50.31874 1.33678 37947 ft 445 kts 317°
2026-05-06 14:13 50.36539 1.27270 37948 ft 444 kts 317°
2026-05-06 14:14 50.41153 1.20913 37947 ft 443 kts 317°
2026-05-06 14:14 50.45785 1.14518 37950 ft 442 kts 317°
2026-05-06 14:15 50.50382 1.08156 37953 ft 441 kts 317°
2026-05-06 14:15 50.55109 1.01962 37954 ft 441 kts 320°
2026-05-06 14:16 50.59929 0.96074 37954 ft 441 kts 321°
2026-05-06 14:16 50.64776 0.90128 37971 ft 440 kts 320°
2026-05-06 14:17 50.69592 0.84146 37963 ft 440 kts 320°
2026-05-06 14:17 50.74353 0.78197 37933 ft 428 kts 320°
2026-05-06 14:18 50.76651 0.75321 37943 ft 416 kts 320°
2026-05-06 14:18 50.78884 0.72521 37948 ft 411 kts 320°
2026-05-06 14:18 50.83408 0.66833 37976 ft 417 kts 320°
2026-05-06 14:19 50.87976 0.61078 37982 ft 424 kts 320°
2026-05-06 14:19 50.92618 0.55219 37992 ft 427 kts 320°
2026-05-06 14:20 50.97249 0.49356 38005 ft 427 kts 319°
2026-05-06 14:20 51.01848 0.43518 37992 ft 417 kts 319°
2026-05-06 14:21 51.06345 0.37795 38023 ft 415 kts 319°
2026-05-06 14:21 51.10869 0.32028 38030 ft 415 kts 319°
2026-05-06 14:22 51.15366 0.26289 38019 ft 415 kts 319°
2026-05-06 14:22 51.19849 0.20552 38019 ft 416 kts 319°
2026-05-06 14:23 51.24374 0.14744 38007 ft 417 kts 319°
2026-05-06 14:23 51.28905 0.08915 37992 ft 418 kts 319°
2026-05-06 14:24 51.32811 0.02226 38005 ft 413 kts 299°
2026-05-06 14:24 51.34931 -0.06274 37992 ft 411 kts 284°
2026-05-06 14:25 51.36354 -0.15125 37975 ft 411 kts 283°
2026-05-06 14:25 51.37735 -0.23982 37983 ft 411 kts 283°
2026-05-06 14:26 51.39183 -0.32839 37992 ft 410 kts 284°
2026-05-06 14:26 51.40643 -0.41653 37990 ft 409 kts 284°
2026-05-06 14:27 51.42089 -0.50417 37993 ft 409 kts 284°
2026-05-06 14:27 51.43525 -0.59180 37991 ft 407 kts 283°
2026-05-06 14:28 51.44908 -0.67660 37989 ft 407 kts 283°
2026-05-06 14:28 51.46331 -0.76440 37985 ft 406 kts 283°
2026-05-06 14:29 51.47748 -0.85227 37990 ft 405 kts 283°
2026-05-06 14:29 51.49146 -0.93941 37991 ft 405 kts 283°
2026-05-06 14:30 51.50539 -1.02671 37992 ft 404 kts 283°
2026-05-06 14:30 51.51933 -1.11438 37997 ft 404 kts 283°
2026-05-06 14:31 51.53312 -1.20171 37990 ft 405 kts 283°
2026-05-06 14:31 51.54699 -1.28961 37994 ft 406 kts 283°
2026-05-06 14:32 51.56084 -1.37747 37988 ft 406 kts 283°
2026-05-06 14:32 51.57468 -1.46516 37995 ft 405 kts 283°